GW6905 Weather Reports


Display with metric or nautical units.
time (UTC)temp
F
wind
direction
speed
MPH
gust
MPH
rain 1hr
in
rain 24hr
in
rain mn
in
humidity
%
barometer
mb
20260509075659 51 181 5.0 7.0 0.00 0.00 0.00 54 1007.8
20260509075157 51 155 5.0 6.0 0.00 0.00 0.00 52 1007.9
20260509074653 52 155 5.0 6.0 0.00 0.00 0.00 49 1008.1
20260509074150 52 186 6.0 7.0 0.00 0.00 0.00 48 1008.1
20260509073647 51 203 6.0 7.0 0.00 0.00 0.00 46 1008.2
20260509073143 52 151 3.0 3.0 0.00 0.00 0.00 43 1008.3
20260509072641 52 209 4.0 6.0 0.00 0.00 0.00 42 1008.6
20260509072137 52 221 6.0 6.0 0.00 0.00 0.00 41 1008.7
20260509071634 52 204 6.0 7.0 0.00 0.00 0.00 39 1008.5
20260509071131 52 179 6.0 7.0 0.00 0.00 0.00 37 1008.7
20260509070628 52 188 5.0 7.0 0.00 0.00 0.00 37 1008.7
20260509070124 52 180 6.0 8.0 0.00 0.00 0.00 36 1008.9
20260509065620 53 208 6.0 8.0 0.00 0.00 0.00 35 1008.7
20260509065116 53 170 6.0 7.0 0.00 0.00 0.00 34 1009.0
20260509064614 53 173 8.0 9.0 0.00 0.00 0.00 34 1009.0
20260509064112 53 178 9.0 11.0 0.00 0.00 0.00 33 1009.2
20260509063608 52 201 7.0 8.0 0.00 0.00 0.00 34 1009.3
20260509063105 52 195 7.0 8.0 0.00 0.00 0.00 34 1009.3
20260509062602 52 161 8.0 9.0 0.00 0.00 0.00 33 1009.1
20260509062059 52 192 6.0 7.0 0.00 0.00 0.00 33 1009.3
20260509061555 52 217 6.0 8.0 0.00 0.00 0.00 32 1009.4
20260509061053 52 199 3.0 3.0 0.00 0.00 0.00 33 1009.4
20260509060551 52 174 5.0 7.0 0.00 0.00 0.00 32 1009.5
20260509060046 51 189 3.0 3.0 0.00 0.00 0.00 32 1009.6
20260509055542 51 200 4.0 4.0 0.00 0.00 0.00 33 1009.6
20260509055038 51 200 4.0 4.0 0.00 0.00 0.00 32 1009.7
20260509054535 51 211 2.0 2.0 0.00 0.00 0.00 33 1009.8
20260509054033 51 210 2.0 2.0 0.00 0.00 0.00 33 1009.5
20260509053531 51 181 2.0 3.0 0.00 0.00 0.00 32 1009.8
20260509053027 51 221 2.0 2.0 0.00 0.00 0.00 34 1009.5
20260509052525 51 214 1.0 1.0 0.00 0.00 0.00 35 1009.7
20260509052023 51 193 1.0 1.0 0.00 0.00 0.00 33 1009.6
20260509051521 51 186 1.0 1.0 0.00 0.00 0.00 32 1009.9
20260509051018 51 203 2.0 2.0 0.00 0.00 0.00 31 1009.8
20260509050514 51 174 2.0 2.0 0.00 0.00 0.00 32 1009.9
20260509050011 50 181 2.0 2.0 0.00 0.00 0.00 32 1009.9
20260509045508 50 183 0.0 0.0 0.00 0.00 0.00 34 1009.9
20260509045005 51 199 1.0 1.0 0.00 0.00 0.00 33 1009.8
20260509044503 51 177 2.0 2.0 0.00 0.00 0.00 33 1010.0
20260509044000 52 216 3.0 3.0 0.00 0.00 0.00 32 1010.3
20260509043455 52 178 3.0 3.0 0.00 0.00 0.00 31 1010.2
20260509042951 52 199 5.0 7.0 0.00 0.00 0.00 31 1010.3
20260509042449 52 216 3.0 3.0 0.00 0.00 0.00 32 1010.3
20260509041944 52 194 2.0 2.0 0.00 0.00 0.00 34 1010.5
20260509041442 52 189 6.0 7.0 0.00 0.00 0.00 33 1010.4
20260509040940 51 195 4.0 4.0 0.00 0.00 0.00 33 1010.6
20260509040438 52 204 1.0 1.0 0.00 0.00 0.00 36 1010.5
20260509035934 52 167 4.0 4.0 0.00 0.00 0.00 33 1010.7
20260509035431 52 179 5.0 6.0 0.00 0.00 0.00 34 1010.5
20260509034927 51 191 4.0 4.0 0.00 0.00 0.00 34 1010.7
20260509034425 51 202 2.0 2.0 0.00 0.00 0.00 35 1010.7
20260509033922 51 201 2.0 2.0 0.00 0.00 0.00 39 1010.7
20260509033419 50 181 2.0 2.0 0.00 0.00 0.00 39 1010.6
20260509032915 48 203 1.0 2.0 0.00 0.00 0.00 44 1010.7
20260509032413 47 210 0.0 0.0 0.00 0.00 0.00 44 1010.9
20260509031911 45 209 0.0 0.0 0.00 0.00 0.00 47 1010.7
20260509031408 44 13 0.0 0.0 0.00 0.00 0.00 49 1010.7
20260509030905 43 27 0.0 0.0 0.00 0.00 0.00 50 1010.8
20260509030404 42 28 0.0 0.0 0.00 0.00 0.00 51 1011.1
20260509025900 43 0 2.0 2.0 0.00 0.00 0.00 55 1011.2
20260509025355 42 14 2.0 2.0 0.00 0.00 0.00 51 1011.1
20260509024851 42 8 2.0 2.0 0.00 0.00 0.00 55 1011.2
20260509024347 42 358 2.0 2.0 0.00 0.00 0.00 53 1011.3
20260509023844 42 357 3.0 3.0 0.00 0.00 0.00 53 1011.1
20260509023342 41 1 2.0 2.0 0.00 0.00 0.00 57 1011.1
20260509022838 42 0 3.0 2.0 0.00 0.00 0.00 54 1011.2
20260509022336 41 0 3.0 3.0 0.00 0.00 0.00 54 1011.2
20260509021832 41 347 2.0 2.0 0.00 0.00 0.00 58 1011.3
20260509021329 42 355 1.0 1.0 0.00 0.00 0.00 57 1011.1
20260509020827 42 1 2.0 2.0 0.00 0.00 0.00 54 1011.3
20260509020325 44 356 3.0 3.0 0.00 0.00 0.00 55 1011.3
20260509015822 46 354 3.0 2.0 0.00 0.00 0.00 47 1011.3
20260509015320 46 353 3.0 3.0 0.00 0.00 0.00 46 1011.1
20260509014816 48 358 0.0 0.0 0.00 0.00 0.00 45 1011.2
20260509014314 48 358 1.0 0.0 0.00 0.00 0.00 44 1011.2
20260509013810 49 358 1.0 1.0 0.00 0.00 0.00 44 1011.5
20260509013307 50 350 2.0 2.0 0.00 0.00 0.00 43 1011.2
20260509012803 52 62 0.0 0.0 0.00 0.00 0.00 40 1011.4
20260509012300 54 158 0.0 0.0 0.00 0.00 0.00 36 1011.0
20260509011757 55 186 1.0 1.0 0.00 0.00 0.00 33 1011.3
20260509011254 55 177 1.0 1.0 0.00 0.00 0.00 34 1011.3
20260509010752 55 177 2.0 2.0 0.00 0.00 0.00 33 1011.2
20260509010248 55 206 2.0 2.0 0.00 0.00 0.00 33 1011.3
20260509005746 55 206 2.0 2.0 0.00 0.00 0.00 33 1011.4
20260509005244 55 204 2.0 2.0 0.00 0.00 0.00 33 1011.2
20260509004743 56 217 3.0 3.0 0.00 0.00 0.00 32 1011.3
20260509004241 57 186 3.0 3.0 0.00 0.00 0.00 31 1011.2
20260509003739 57 193 2.0 2.0 0.00 0.00 0.00 31 1011.0
20260509003236 56 159 2.0 3.0 0.00 0.00 0.00 32 1011.3
20260509002733 56 184 0.0 0.0 0.00 0.00 0.00 35 1011.2
20260509002231 57 200 4.0 4.0 0.00 0.00 0.00 32 1011.4
20260509001728 57 199 6.0 7.0 0.00 0.00 0.00 30 1011.4
20260509001224 57 209 2.0 2.0 0.00 0.00 0.00 31 1011.4
20260509000722 57 214 5.0 6.0 0.00 0.00 0.00 30 1011.5
20260509000219 58 172 2.0 2.0 0.00 0.00 0.00 29 1011.5
20260508235716 58 203 5.0 6.0 0.00 0.00 0.00 29 1011.3
20260508235212 58 221 6.0 6.0 0.00 0.00 0.00 29 1011.4
20260508234710 59 191 2.0 2.0 0.00 0.00 0.00 31 1011.3
20260508234206 59 206 4.0 4.0 0.00 0.00 0.00 28 1011.3
20260508233706 59 226 3.0 3.0 0.00 0.00 0.00 30 1011.5
20260508233203 59 196 8.0 8.0 0.00 0.00 0.00 28 1011.4
20260508232700 60 208 6.0 7.0 0.00 0.00 0.00 30 1011.4
20260508232156 60 191 4.0 6.0 0.00 0.00 0.00 30 1011.4
20260508231655 60 219 6.0 8.0 0.00 0.00 0.00 26 1011.3
20260508231151 60 214 8.0 9.0 0.00 0.00 0.00 28 1011.5
20260508230648 60 183 5.0 6.0 0.00 0.00 0.00 28 1011.5
20260508230144 60 238 5.0 6.0 0.00 0.00 0.00 27 1011.6
20260508225642 60 201 7.0 10.0 0.00 0.00 0.00 28 1011.4
20260508225138 60 230 5.0 6.0 0.00 0.00 0.00 29 1011.4
20260508224636 60 224 6.0 9.0 0.00 0.00 0.00 27 1011.3
20260508224134 60 228 4.0 4.0 0.00 0.00 0.00 28 1011.5
20260508223631 61 191 9.0 10.0 0.00 0.00 0.00 26 1011.6
20260508223128 60 198 6.0 7.0 0.00 0.00 0.00 26 1011.6
20260508222626 61 221 6.0 7.0 0.00 0.00 0.00 27 1011.4
20260508222122 61 241 2.0 3.0 0.00 0.00 0.00 26 1011.6
20260508221619 61 244 5.0 6.0 0.00 0.00 0.00 26 1011.7
20260508221114 61 296 3.0 4.0 0.00 0.00 0.00 26 1011.5
20260508220611 61 209 3.0 3.0 0.00 0.00 0.00 30 1011.6
20260508220108 61 251 9.0 10.0 0.00 0.00 0.00 25 1011.9
20260508215605 61 307 8.0 11.0 0.00 0.00 0.00 25 1011.6
20260508215101 61 44 2.0 2.0 0.00 0.00 0.00 26 1011.5
20260508214558 61 187 4.0 4.0 0.00 0.00 0.00 25 1011.8
20260508214055 61 251 8.0 8.0 0.00 0.00 0.00 24 1011.6
20260508213552 62 229 9.0 9.0 0.00 0.00 0.00 24 1011.7
20260508213048 62 241 4.0 4.0 0.00 0.00 0.00 25 1011.8
20260508212545 62 194 6.0 7.0 0.00 0.00 0.00 26 1011.8
20260508212041 62 345 6.0 10.0 0.00 0.00 0.00 28 1011.8
20260508211537 62 252 7.0 10.0 0.00 0.00 0.00 24 1011.6
20260508211033 62 217 7.0 9.0 0.00 0.00 0.00 26 1011.8
20260508210530 62 258 8.0 8.0 0.00 0.00 0.00 24 1011.7
20260508210028 62 151 5.0 8.0 0.00 0.00 0.00 24 1011.8
20260508205524 62 214 9.0 10.0 0.00 0.00 0.00 26 1012.0
20260508205020 63 305 7.0 9.0 0.00 0.00 0.00 24 1012.1
20260508204518 62 107 0.0 0.0 0.00 0.00 0.00 24 1012.2
20260508204013 64 250 3.0 4.0 0.00 0.00 0.00 23 1012.1
20260508203509 63 250 4.0 6.0 0.00 0.00 0.00 24 1012.2
20260508203005 63 223 4.0 4.0 0.00 0.00 0.00 26 1012.2
20260508202503 61 149 2.0 2.0 0.00 0.00 0.00 26 1012.3
20260508201959 61 200 5.0 7.0 0.00 0.00 0.00 23 1012.3
20260508201456 62 225 10.0 11.0 0.00 0.00 0.00 24 1012.3
20260508200953 62 194 12.0 13.0 0.00 0.00 0.00 26 1012.5
20260508200450 62 174 5.0 7.0 0.00 0.00 0.00 30 1012.4
20260508195944 63 214 4.0 4.0 0.00 0.00 0.00 24 1012.7
20260508195442 62 158 1.0 1.0 0.00 0.00 0.00 26 1012.6
20260508194938 62 221 6.0 8.0 0.00 0.00 0.00 27 1012.8
20260508194435 61 182 8.0 9.0 0.00 0.00 0.00 27 1012.6
20260508193932 62 233 7.0 9.0 0.00 0.00 0.00 25 1012.6
20260508193430 62 254 4.0 4.0 0.00 0.00 0.00 25 1013.1
20260508192925 61 197 3.0 3.0 0.00 0.00 0.00 26 1013.1
20260508192423 61 278 5.0 7.0 0.00 0.00 0.00 25 1013.0
20260508191919 62 338 9.0 11.0 0.00 0.00 0.00 24 1013.1
20260508191417 62 184 9.0 10.0 0.00 0.00 0.00 30 1012.8
20260508190913 62 234 6.0 8.0 0.00 0.00 0.00 24 1013.2
20260508190411 61 218 2.0 2.0 0.00 0.00 0.00 25 1012.8
20260508185907 61 237 8.0 13.0 0.00 0.00 0.00 27 1013.4
20260508185404 61 206 12.0 14.0 0.00 0.00 0.00 27 1013.1
20260508184902 62 240 10.0 10.0 0.00 0.00 0.00 30 1013.2
20260508184359 62 215 8.0 10.0 0.00 0.00 0.00 28 1013.2
20260508183855 61 133 2.0 3.0 0.00 0.00 0.00 24 1013.3
20260508183352 60 47 5.0 9.0 0.00 0.00 0.00 24 1013.4
20260508182848 60 312 6.0 7.0 0.00 0.00 0.00 26 1013.5
20260508182345 61 216 7.0 8.0 0.00 0.00 0.00 30 1013.3
20260508181840 61 181 6.0 8.0 0.00 0.00 0.00 28 1013.7
20260508181337 61 121 3.0 3.0 0.00 0.00 0.00 25 1013.6
20260508180834 61 260 6.0 7.0 0.00 0.00 0.00 25 1013.9
20260508180331 62 240 7.0 9.0 0.00 0.00 0.00 24 1013.7
20260508175827 62 227 4.0 6.0 0.00 0.00 0.00 27 1013.8
20260508175324 61 235 4.0 4.0 0.00 0.00 0.00 28 1014.0
20260508174822 60 201 12.0 14.0 0.00 0.00 0.00 28 1014.0
20260508174319 62 192 6.0 7.0 0.00 0.00 0.00 27 1014.1
20260508173815 61 213 9.0 10.0 0.00 0.00 0.00 28 1014.2
20260508173313 60 247 4.0 6.0 0.00 0.00 0.00 27 1014.3
20260508172808 61 14 1.0 2.0 0.00 0.00 0.00 26 1014.2
20260508172307 61 209 4.0 6.0 0.00 0.00 0.00 27 1014.6
20260508171802 62 206 9.0 10.0 0.00 0.00 0.00 27 1014.3
20260508171258 61 243 5.0 7.0 0.00 0.00 0.00 28 1014.6
20260508170755 61 216 6.0 8.0 0.00 0.00 0.00 29 1014.5
20260508170253 61 215 5.0 6.0 0.00 0.00 0.00 28 1014.6
20260508165749 61 181 11.0 14.0 0.00 0.00 0.00 26 1014.6
20260508165247 61 346 1.0 2.0 0.00 0.00 0.00 26 1014.6
20260508164743 60 48 4.0 4.0 0.00 0.00 0.00 27 1014.9
20260508164240 60 204 4.0 4.0 0.00 0.00 0.00 28 1014.6
20260508163738 59 206 3.0 3.0 0.00 0.00 0.00 28 1015.0
20260508163235 61 255 4.0 6.0 0.00 0.00 0.00 27 1014.8
20260508162731 60 145 4.0 4.0 0.00 0.00 0.00 30 1014.8
20260508162228 60 321 4.0 4.0 0.00 0.00 0.00 27 1015.0
20260508161725 59 229 4.0 4.0 0.00 0.00 0.00 29 1015.0
20260508161222 59 240 4.0 4.0 0.00 0.00 0.00 27 1015.1
20260508160720 58 14 3.0 4.0 0.00 0.00 0.00 29 1015.2
20260508160218 58 52 3.0 3.0 0.00 0.00 0.00 26 1015.1
20260508155714 58 226 9.0 10.0 0.00 0.00 0.00 25 1015.0
20260508155212 57 216 9.0 10.0 0.00 0.00 0.00 29 1015.3
20260508154708 58 221 13.0 15.0 0.00 0.00 0.00 26 1015.2
20260508154206 58 212 8.0 8.0 0.00 0.00 0.00 30 1015.3
20260508153702 58 214 9.0 14.0 0.00 0.00 0.00 31 1015.2
20260508153159 57 191 5.0 6.0 0.00 0.00 0.00 30 1015.1
20260508152655 57 218 8.0 11.0 0.00 0.00 0.00 32 1015.2
20260508152151 57 210 12.0 15.0 0.00 0.00 0.00 33 1015.4
20260508151648 57 188 4.0 4.0 0.00 0.00 0.00 33 1015.5
20260508151145 57 248 4.0 4.0 0.00 0.00 0.00 33 1015.3
20260508150642 57 219 6.0 7.0 0.00 0.00 0.00 33 1015.3
20260508150138 56 249 5.0 7.0 0.00 0.00 0.00 34 1015.2
20260508145634 55 210 4.0 4.0 0.00 0.00 0.00 34 1015.4
20260508145131 56 262 9.0 9.0 0.00 0.00 0.00 34 1015.4
20260508144628 55 229 2.0 3.0 0.00 0.00 0.00 34 1015.6
20260508144126 55 219 6.0 6.0 0.00 0.00 0.00 34 1015.5
20260508143623 55 269 4.0 4.0 0.00 0.00 0.00 39 1015.5
20260508143120 54 111 1.0 1.0 0.00 0.00 0.00 38 1015.6
20260508142616 54 216 10.0 11.0 0.00 0.00 0.00 36 1015.6
20260508142113 54 115 3.0 4.0 0.00 0.00 0.00 40 1015.6
20260508141610 53 211 6.0 6.0 0.00 0.00 0.00 41 1015.9
20260508141108 53 202 9.0 10.0 0.00 0.00 0.00 44 1016.0
20260508140604 53 250 4.0 7.0 0.00 0.00 0.00 39 1016.0
20260508135556 52 206 10.0 11.0 0.00 0.00 0.00 44 1016.0
20260508135053 51 239 8.0 9.0 0.00 0.00 0.00 44 1016.0
20260508134550 51 196 6.0 8.0 0.00 0.00 0.00 42 1016.1
20260508134047 51 251 7.0 9.0 0.00 0.00 0.00 45 1016.2
20260508133543 51 197 7.0 8.0 0.00 0.00 0.00 48 1016.0
20260508133041 51 155 2.0 3.0 0.00 0.00 0.00 51 1016.1
20260508132539 50 200 6.0 7.0 0.00 0.00 0.00 51 1016.3
20260508132035 50 180 3.0 4.0 0.00 0.00 0.00 50 1016.3
20260508131530 50 219 6.0 7.0 0.00 0.00 0.00 54 1016.2
20260508131027 49 172 5.0 6.0 0.00 0.00 0.00 55 1016.2
20260508130525 48 191 8.0 9.0 0.00 0.00 0.00 56 1016.3
20260508130021 47 206 5.0 6.0 0.00 0.00 0.00 57 1016.1
20260508125516 47 195 6.0 7.0 0.00 0.00 0.00 56 1016.2
20260508125015 46 180 5.0 6.0 0.00 0.00 0.00 56 1016.2
20260508124512 46 189 6.0 6.0 0.00 0.00 0.00 58 1016.4
20260508124009 45 198 6.0 7.0 0.00 0.00 0.00 57 1016.2
20260508123508 45 196 6.0 7.0 0.00 0.00 0.00 60 1016.4
20260508123004 45 206 1.0 3.0 0.00 0.00 0.00 61 1016.1
20260508122501 44 127 2.0 2.0 0.00 0.00 0.00 61 1016.3
20260508121958 44 125 2.0 2.0 0.00 0.00 0.00 64 1016.1
20260508121456 44 152 1.0 2.0 0.00 0.00 0.00 64 1016.1
20260508120954 43 102 0.0 0.0 0.00 0.00 0.00 65 1016.0
20260508120451 43 99 0.0 0.0 0.00 0.00 0.00 67 1016.0
20260508115949 40 89 0.0 0.0 0.00 0.00 0.00 71 1015.8
20260508115447 38 70 0.0 0.0 0.00 0.00 0.00 82 1015.9
20260508114943 37 69 1.0 1.0 0.00 0.00 0.00 83 1016.0
20260508114440 36 69 0.0 0.0 0.00 0.00 0.00 82 1016.1
20260508113936 35 69 0.0 0.0 0.00 0.00 0.00 83 1015.8
20260508113434 33 69 0.0 0.0 0.00 0.00 0.00 86 1016.1
20260508112931 32 65 2.0 2.0 0.00 0.00 0.00 87 1015.8
20260508112428 31 62 2.0 2.0 0.00 0.00 0.00 86 1015.8
20260508111924 30 63 0.0 0.0 0.00 0.00 0.00 87 1015.8
20260508111422 29 62 1.0 1.0 0.00 0.00 0.00 87 1015.8
20260508110919 29 62 0.0 0.0 0.00 0.00 0.00 89 1016.0
20260508110417 28 62 1.0 1.0 0.00 0.00 0.00 91 1015.8
20260508105916 27 57 1.0 1.0 0.00 0.00 0.00 92 1015.8
20260508105412 26 59 2.0 2.0 0.00 0.00 0.00 93 1015.8
20260508104910 25 60 1.0 2.0 0.00 0.00 0.00 94 1015.9
20260508104407 24 60 1.0 1.0 0.00 0.00 0.00 92 1015.8
20260508103904 24 60 1.0 1.0 0.00 0.00 0.00 92 1015.5
20260508103401 25 60 1.0 1.0 0.00 0.00 0.00 92 1015.6
20260508102858 25 60 1.0 1.0 0.00 0.00 0.00 92 1015.5
20260508102356 25 60 1.0 0.0 0.00 0.00 0.00 93 1015.6
20260508101853 26 60 0.0 0.0 0.00 0.00 0.00 94 1015.8
20260508101350 26 45 2.0 2.0 0.00 0.00 0.00 94 1015.8
20260508100848 25 47 3.0 3.0 0.00 0.00 0.00 94 1016.0
20260508100347 25 48 2.0 2.0 0.00 0.00 0.00 95 1015.9
20260508095842 24 46 2.0 2.0 0.00 0.00 0.00 94 1016.0
20260508095340 25 58 3.0 2.0 0.00 0.00 0.00 94 1015.8
20260508094836 24 61 1.0 1.0 0.00 0.00 0.00 93 1016.0
20260508094333 25 61 0.0 0.0 0.00 0.00 0.00 94 1015.9
20260508093830 25 61 0.0 0.0 0.00 0.00 0.00 93 1015.8
20260508093328 26 61 0.0 0.0 0.00 0.00 0.00 93 1016.2
20260508092825 25 61 0.0 0.0 0.00 0.00 0.00 93 1016.0
20260508092323 26 60 1.0 1.0 0.00 0.00 0.00 93 1016.0
20260508091821 26 60 1.0 1.0 0.00 0.00 0.00 94 1016.1
20260508091317 25 60 1.0 1.0 0.00 0.00 0.00 93 1016.2
20260508090815 25 60 0.0 0.0 0.00 0.00 0.00 92 1016.0
20260508090313 26 60 1.0 1.0 0.00 0.00 0.00 93 1016.2
20260508085809 26 60 1.0 1.0 0.00 0.00 0.00 94 1016.1
20260508085307 26 61 0.0 0.0 0.00 0.00 0.00 94 1016.2
20260508084802 25 61 0.0 0.0 0.00 0.00 0.00 92 1016.2
20260508084259 26 61 0.0 0.0 0.00 0.00 0.00 93 1016.3
20260508083757 26 61 1.0 1.0 0.00 0.00 0.00 92 1016.5
20260508083254 26 60 0.0 0.0 0.00 0.00 0.00 92 1016.2
20260508082753 26 59 1.0 1.0 0.00 0.00 0.00 92 1016.4
20260508082252 26 59 2.0 2.0 0.00 0.00 0.00 93 1016.1
20260508081748 26 58 2.0 2.0 0.00 0.00 0.00 93 1016.3
20260508081245 25 58 2.0 2.0 0.00 0.00 0.00 92 1016.3
20260508080742 26 63 2.0 2.0 0.00 0.00 0.00 91 1016.3
20260508080240 26 65 2.0 2.0 0.00 0.00 0.00 93 1016.5
20260508075737 26 65 1.0 1.0 0.00 0.00 0.00 91 1016.3